Hourly Data Report for July 18, 2017

TORONTO CITY
ONTARIO

43°40'00.000" N
79°24'00.000" W
112.50 m
6158355
71508
XTO

Download Data

Hourly Data (July 2017)
Hourly Data Report for July 18, 2017
TIME
LST
Temp Definition
°C
Dew Point Definition
°C
Rel Hum Definition
%
Precip. Amount Definition
mm

Wind Dir Definition
10's deg

Wind Spd Definition
km/h
Visibility Definition
km
Stn Press Definition
kPa
Hmdx Definition


Wind Chill Definition


Weather Definition


00:00 20.8 17.5 82 0.0 LegendMM LegendMM   100.35 26   LegendNANA
01:00 20.6 16.4 77 0.0 LegendMM LegendMM   100.35 25   LegendNANA
02:00 20.3 16.6 79 0.0 LegendMM LegendMM   100.31 25   LegendNANA
03:00 19.6 15.8 79 0.0 LegendMM LegendMM   100.35     LegendNANA
04:00 18.5 15.7 84 0.0 LegendMM LegendMM   100.39     LegendNANA
05:00 18.0 15.5 85 0.0 LegendMM LegendMM   100.41     LegendNANA
06:00 18.8 15.6 82 0.0 LegendMM LegendMM   100.49     LegendNANA
07:00 20.5 16.5 78 0.0 LegendMM LegendMM   100.52 25   LegendNANA
08:00 22.9 17.3 71 0.0 LegendMM LegendMM   100.55 28   LegendNANA
09:00 23.3 16.8 67 0.0 LegendMM LegendMM   100.56 28   LegendNANA
10:00 24.8 18.1 66 0.0 LegendMM LegendMM   100.56 31   LegendNANA
11:00 24.3 17.1 64 0.0 LegendMM LegendMM   100.58 30   LegendNANA
12:00 24.6 16.5 61 0.0 LegendMM LegendMM   100.57 30   LegendNANA
13:00 25.3 15.4 54 0.0 LegendMM LegendMM   100.54 30   LegendNANA
14:00 25.9 15.3 52 0.0 LegendMM LegendMM   100.49 30   LegendNANA
15:00 26.4 12.9 43 0.0 LegendMM LegendMM   100.43 29   LegendNANA
16:00 26.6 11.7 40 0.0 LegendMM LegendMM   100.39 29   LegendNANA
17:00 26.5 13.4 44 0.0 LegendMM LegendMM   100.34 30   LegendNANA
18:00 26.4 11.3 39 0.0 LegendMM LegendMM   100.35 28   LegendNANA
19:00 25.0 15.3 55 0.0 LegendMM LegendMM   100.37 29   LegendNANA
20:00 23.8 15.7 61 0.0 LegendMM LegendMM   100.36 28   LegendNANA
21:00 23.0 15.8 64 0.0 LegendMM LegendMM   100.39 27   LegendNANA
22:00 21.9 16.1 69 0.0 LegendMM LegendMM   100.42 27   LegendNANA
23:00 21.7 16.3 71 0.0 LegendMM LegendMM   100.42 27   LegendNANA

Notes on Data Quality.

Legend

  • E = Estimated
  • M = Missing
  • NA = Not Available*
  • [empty] = Indicates an unobserved value
Date modified: